7 * 24
多渠道服务支持
STARLINK-11302是美国SpaceX公司星链星座的一颗卫星,于2024年9月20日发射升空,隶属于美国太空探索技术公司打造的星链互联网星座项目。星链项目旨在为全球提供低延迟、高速率的卫星互联网服务,该卫星入轨后将进一步扩充星链星座规模,提升全球网络覆盖能力,推动全球互联网络基础设施建设。
美国
(US)
| 数据来源 | 国际轨道数据 |
| 星历时间: | 2026-09-11T20:07:04+0800 15小时前 查看轨道信息 |
| 半长轴: | 6737.877km |
| 偏心率: | 0.0001145 |
| 轨道倾角: | 53.159° |
| 近地点辐角 | 80.987° |
| 升交点赤经 | 340.223° |
| 平近点角 | 279.128° |
| 近地点: | 358.968km |
| 远地点: | 360.512km |
| 周期: | 91.737分钟 |
| 每日圈数: | 15.697056 |